Pascagoula Weather Center

Moon Phase Calendar



Online Cameras

 


      

Current Conditions in Pascagoula
6/14/2024 8:14:44 PM

84°F
Feels Like 91
Clouds
Humidity
70%
Pressure
29.91"
Wind
0
Dew Point
74°F
UV Index
0/10 (Low)
Visibility
6 mi

Hourly Forecast

Date & Time Fri, Jun 14
8:00 PM
Fri, Jun 14
9:00 PM
Fri, Jun 14
10:00 PM
Fri, Jun 14
11:00 PM
Sat, Jun 15
12:00 AM
Sat, Jun 15
1:00 AM
Sat, Jun 15
2:00 AM
Sat, Jun 15
3:00 AM
Sat, Jun 15
4:00 AM
Sat, Jun 15
5:00 AM
Sat, Jun 15
6:00 AM
Sat, Jun 15
7:00 AM
Sat, Jun 15
8:00 AM
Sat, Jun 15
9:00 AM
Sat, Jun 15
10:00 AM
Sat, Jun 15
11:00 AM
Sat, Jun 15
12:00 PM
Sat, Jun 15
1:00 PM
Sat, Jun 15
2:00 PM
Sat, Jun 15
3:00 PM
Sat, Jun 15
4:00 PM
Sat, Jun 15
5:00 PM
Sat, Jun 15
6:00 PM
Sat, Jun 15
7:00 PM
Sat, Jun 15
8:00 PM
Sat, Jun 15
9:00 PM
Sat, Jun 15
10:00 PM
Sat, Jun 15
11:00 PM
Sun, Jun 16
12:00 AM
Sun, Jun 16
1:00 AM
Sun, Jun 16
2:00 AM
Sun, Jun 16
3:00 AM
Sun, Jun 16
4:00 AM
Sun, Jun 16
5:00 AM
Sun, Jun 16
6:00 AM
Sun, Jun 16
7:00 AM
Sun, Jun 16
8:00 AM
Sun, Jun 16
9:00 AM
Sun, Jun 16
10:00 AM
Sun, Jun 16
11:00 AM
Sun, Jun 16
12:00 PM
Sun, Jun 16
1:00 PM
Sun, Jun 16
2:00 PM
Sun, Jun 16
3:00 PM
Sun, Jun 16
4:00 PM
Sun, Jun 16
5:00 PM
Sun, Jun 16
6:00 PM
Sun, Jun 16
7:00 PM
Condition
Clouds

Clouds

Clouds

Clouds

Clouds

Clouds

Clear

Clear

Clear

Clear

Clear

Clear

Clear

Clear

Clear

Clear

Clear

Clear

Clear

Clear

Clear

Clear

Clear

Clear

Clear

Clear

Clear

Clear

Clear

Clear

Clear

Clear

Clear

Rain

Rain

Rain

Rain

Rain

Rain

Rain

Rain

Rain

Rain

Rain

Rain

Rain

Rain

Rain
Temperature 84°F84°F83°F83°F81°F79°F79°F78°F77°F77°F76°F77°F81°F85°F88°F89°F90°F91°F92°F90°F89°F88°F87°F84°F81°F81°F80°F80°F80°F80°F80°F80°F79°F79°F79°F80°F83°F84°F84°F83°F85°F84°F84°F82°F80°F78°F77°F77°F
Feels Like 91°F90°F89°F88°F85°F79°F80°F79°F78°F78°F77°F78°F84°F88°F91°F93°F95°F95°F95°F94°F92°F91°F90°F89°F85°F85°F85°F85°F84°F80°F80°F80°F79°F79°F79°F85°F90°F92°F92°F91°F93°F92°F91°F88°F80°F79°F79°F79°F
Cloudiness 100%89%75%66%50%31%0%0%0%0%0%0%0%0%0%0%0%0%0%0%0%0%0%0%0%0%0%0%0%0%0%0%0%0%0%0%4%17%16%13%10%22%100%100%100%100%100%100%
Visibility 6 mi6 mi6 mi6 mi6 mi6 mi6 mi6 mi6 mi6 mi6 mi6 mi6 mi6 mi6 mi6 mi6 mi6 mi6 mi6 mi6 mi6 mi6 mi6 mi6 mi6 mi6 mi6 mi6 mi6 mi6 mi6 mi6 mi6 mi6 mi6 mi6 mi6 mi6 mi6 mi6 mi6 mi6 mi6 mi6 mi6 mi6 mi6 mi
Precipitation 0%0%0%0%0%0%0%0%0%0%0%0%0%0%0%0%0%0%0%0%0%0%0%0%0%0%0%0%0%0%0%0%0%27%56%60%100%100%100%100%100%100%100%100%100%100%100%100%
Humidity 70%71%72%72%74%73%75%76%76%77%78%77%68%60%53%50%49%47%45%47%47%49%55%65%72%76%79%80%81%80%81%82%84%84%85%82%77%74%76%77%70%73%76%79%82%89%91%89%
Dew Point 74°F73°F73°F73°F72°F70°F70°F69°F69°F69°F69°F70°F69°F69°F68°F68°F68°F67°F67°F67°F66°F66°F69°F71°F72°F72°F73°F74°F74°F73°F73°F74°F74°F74°F74°F74°F75°F75°F75°F75°F74°F75°F75°F75°F74°F74°F74°F74°F
Pressure 29.91"29.91"29.91"29.91"29.91"29.91"29.91"29.91"29.91"29.91"29.91"29.91"29.94"29.94"29.94"29.94"29.94"29.91"29.91"29.91"29.88"29.88"29.88"29.88"29.88"29.91"29.91"29.94"29.91"29.91"29.91"29.91"29.91"29.91"29.94"29.94"29.97"29.97"29.97"29.97"29.97"29.97"29.97"29.97"29.97"29.97"29.94"29.97"
Wind Speed 6.4 mph5.9 mph5.2 mph2.5 mph1.7 mph3.2 mph2.6 mph2.2 mph2.5 mph4 mph5.9 mph5.7 mph5.1 mph4.4 mph4.8 mph6.5 mph8.4 mph10.1 mph12.1 mph14.2 mph12.5 mph11.6 mph9.4 mph7.4 mph7.5 mph8.8 mph8.8 mph7.8 mph6 mph6.8 mph7.8 mph7.6 mph7.7 mph7.5 mph6.6 mph6.4 mph8.9 mph10.6 mph12.2 mph13 mph14 mph14.8 mph14.8 mph14.6 mph15.9 mph14.3 mph14.2 mph14 mph
Wind
Direction
201°
SSW
198°
SSW
213°
SSW
212°
SSW
302°
WNW
323°
NW
11°
N
12°
NNE
355°
N

N

N
11°
N
21°
NNE
50°
NE
82°
E
104°
ESE
116°
ESE
131°
SE
138°
SE
139°
SE
141°
SE
148°
SSE
156°
SSE
164°
SSE
158°
SSE
153°
SSE
149°
SSE
149°
SSE
152°
SSE
143°
SE
137°
SE
136°
SE
133°
SE
131°
SE
120°
ESE
110°
ESE
118°
ESE
118°
ESE
120°
ESE
119°
ESE
118°
ESE
119°
ESE
117°
ESE
122°
ESE
136°
SE
146°
SE
162°
SSE
172°
S

Daily Forecast

Date High Low Precip. Humidity
Today
Jun 14

Clear
91 °F
73 °F
0%
51%
Saturday
Jun 15

Clear
92 °F
76 °F
0%
49%
Sunday
Jun 16

Rain
85 °F
76 °F
100%
70%
Monday
Jun 17

Rain
78 °F
76 °F
100%
89%
Tuesday
Jun 18

Rain
83 °F
77 °F
100%
80%
Wednesday
Jun 19

Rain
86 °F
78 °F
100%
66%
Thursday
Jun 20

Rain
88 °F
76 °F
73%
49%
Friday
Jun 21

Rain
86 °F
73 °F
100%
56%
Saturday
Jun 22

Rain
84 °F
76 °F
100%
74%
Sunday
Jun 23

Rain
87 °F
74 °F
39%
64%
Monday
Jun 24

Rain
80 °F
76 °F
100%
95%
Tuesday
Jun 25

Rain
85 °F
78 °F
100%
73%
Wednesday
Jun 26

Rain
85 °F
79 °F
100%
72%
Thursday
Jun 27

Rain
85 °F
78 °F
100%
78%
Friday
Jun 28

Rain
86 °F
78 °F
100%
73%
Saturday
Jun 29

Rain
87 °F
80 °F
100%
68%

Temperature 8-14 Day Outlook



Precipitation 8-14 Day Outlook






About Us
Contact Us
Site Map
Search Site
Advertise With Us
   
Pascagoula.USGulf.info
THE PASCAGOULA WEBSITE

Copyright 2024, Coastal Town
Privacy    |    Legal